TimeEDT,TemperatureF,Dew PointF,Humidity,Sea Level PressureIn,VisibilityMPH,Wind Direction,Wind SpeedMPH,Gust SpeedMPH,PrecipitationIn,Events,Conditions,WindDirDegrees,DateUTC
12:54 AM,53.1,46.9,80,30.13,10.0,Calm,Calm,-,N/A,,Clear,0,2013-09-19 04:54:00
1:54 AM,51.1,46.0,83,30.13,10.0,East,5.8,-,N/A,,Clear,90,2013-09-19 05:54:00
2:54 AM,50.0,45.0,83,30.12,10.0,East,5.8,-,N/A,,Clear,100,2013-09-19 06:54:00
3:54 AM,46.9,45.0,93,30.12,10.0,Calm,Calm,-,N/A,,Clear,0,2013-09-19 07:54:00
4:54 AM,46.9,45.0,93,30.13,10.0,East,3.5,-,N/A,,Clear,100,2013-09-19 08:54:00
5:54 AM,46.9,45.0,93,30.13,10.0,East,3.5,-,N/A,,Clear,90,2013-09-19 09:54:00
6:54 AM,46.0,44.1,93,30.14,10.0,East,5.8,-,N/A,,Clear,100,2013-09-19 10:54:00
7:54 AM,48.9,46.0,90,30.14,10.0,East,3.5,-,N/A,,Clear,90,2013-09-19 11:54:00
8:54 AM,55.9,48.9,77,30.13,10.0,East,3.5,-,N/A,,Scattered Clouds,80,2013-09-19 12:54:00
9:54 AM,62.1,51.1,67,30.13,10.0,East,3.5,-,N/A,,Scattered Clouds,80,2013-09-19 13:54:00
10:54 AM,66.9,54.0,63,30.13,10.0,East,3.5,-,N/A,,Scattered Clouds,90,2013-09-19 14:54:00
11:54 AM,71.1,52.0,51,30.12,10.0,Calm,Calm,-,N/A,,Scattered Clouds,0,2013-09-19 15:54:00
12:54 PM,73.9,54.0,50,30.10,10.0,North,5.8,-,N/A,,Scattered Clouds,360,2013-09-19 16:54:00
1:54 PM,73.9,52.0,46,30.07,10.0,Calm,Calm,-,N/A,,Scattered Clouds,0,2013-09-19 17:54:00
2:54 PM,77.0,53.1,43,30.05,10.0,Calm,Calm,-,N/A,,Partly Cloudy,0,2013-09-19 18:54:00
3:54 PM,77.0,55.9,48,30.03,10.0,Variable,4.6,-,N/A,,Partly Cloudy,0,2013-09-19 19:54:00
4:54 PM,75.0,57.0,53,30.03,10.0,ENE,5.8,-,N/A,,Clear,60,2013-09-19 20:54:00
5:54 PM,73.0,55.9,55,30.03,10.0,ENE,5.8,-,N/A,,Partly Cloudy,60,2013-09-19 21:54:00
6:54 PM,69.1,57.9,68,30.04,10.0,Calm,Calm,-,N/A,,Partly Cloudy,0,2013-09-19 22:54:00
7:54 PM,64.9,55.9,73,30.04,10.0,East,3.5,-,N/A,,Partly Cloudy,100,2013-09-19 23:54:00
8:54 PM,62.1,55.9,80,30.04,10.0,ESE,3.5,-,N/A,,Partly Cloudy,110,2013-09-20 00:54:00
9:54 PM,61.0,55.0,81,30.04,10.0,East,4.6,-,N/A,,Partly Cloudy,100,2013-09-20 01:54:00
10:54 PM,59.0,52.0,78,30.03,10.0,ESE,3.5,-,N/A,,Clear,120,2013-09-20 02:54:00
11:54 PM,57.0,51.1,81,30.03,10.0,East,5.8,-,N/A,,Clear,90,2013-09-20 03:54:00